STARLINK-34268

Last updated on Thu Jul 03 2025 00:02:07 GMT+0000 (Coordinated Universal Time)

1 64496U 25133AA 25183.58335648 -.01273649 00000+0 -62748-2 0 9996 2 64496 53.1551 210.7432 0001095 56.7695 332.8061 15.84100285 2721
UTC large
Height (km)
Speed (km/s)
/
Latitude / Longitude
Inclination (degrees)
Orbital Period (minutes)
Azimuth
Elevation
Range (km)
Doppler Factor

Next 0 passes for location: London (51.5072 / 0.1276)

Sorry there are no passes over London.